    Orbital elements:
    2010 JG                                             PHA, Earth MOID = 0.0295 AU
    Epoch 2010 July 23.0 TT = JDT 2455400.5                 MPC
    M 339.96790              (2000.0)            P               Q
    n   0.76023335     Peri.  292.09572     +0.89336574     +0.33412869
    a   1.1889715      Node    49.78683     -0.09605214     +0.79516289
    e   0.3199267      Incl.   23.16678     -0.43894377     +0.50603754
    P   1.30           H   20.9           G   0.15           U   9
    Residuals in seconds of arc
    100504 703  0.4+  0.3+    100504 D21  0.1-  0.4-    100505 H10  0.7+  0.0
    100504 703  0.6+  0.2+    100504 D21  0.1-  0.3-    100505 H10  0.9-  0.5-
    100504 703  1.0-  0.0     100504 D21  0.4-  0.3+    100505 H10  0.1+  0.5+
    100504 703  0.8-  0.3+    100505 844  0.4+  0.2+    100505 H10  0.2-  0.1+
    100504 703  0.3-  0.5+    100505 844  0.1+  0.3-    100505 H21  0.1-  0.5+
    100504 H10  0.1-  0.5+    100505 844  0.2+  0.3+    100505 H21  0.3+  0.4+
    100504 H10  0.3-  0.1+    100505 844  0.0   0.9+    100505 H21  0.8+  0.0
    100504 H10  0.2-  0.2+    100505 844  0.1-  0.1+    100505 H11  0.1-  0.1+
    100504 703  0.7+  1.3-    100505 844  0.4+  0.4+    100505 H11  0.5-  0.2+
    100504 H10  0.5-  0.0     100505 844  0.2+  0.3+    100505 H11  0.8-  0.1-
    100504 D96  0.1+  0.2-    100505 844  0.7-  0.1+    100505 H11  1.0-  0.2-
    100504 D96  0.1+  0.5-    100505 844  0.2-  0.3+    100505 850  0.7-  0.9+
    100504 D96  0.0   0.3-    100505 844  0.2+  0.6-    100505 850  0.4+  0.5+
    100504 D96  0.0   0.1+    100505 844  0.2+  0.5-    100505 850  0.1-  0.3+
    100504 D96  0.1+  0.1-    100505 844  0.5-  0.4+    100505 854  0.3-  0.2+
    100504 D90  0.1+  0.7-    100505 844  0.6+  0.1+    100505 850  0.2+  0.8+
    100504 D96  0.2+  0.3+    100505 844  0.3-  0.3-    100505 854  1.1+  0.8+
    100504 D96  0.1-  0.6-    100505 H36  0.6-  0.1+    100505 854  0.3+  0.4+
    100504 D90  0.2+  0.0     100505 H36  0.0   0.2+    100505 850  0.0   0.1-
    100504 D90  0.6+  0.0     100505 H36  0.0   0.1+    100505 850  0.1+  0.4-
    100504 D21  0.1+  0.5+    100505 H36  0.1-  0.1+    100505 H10  0.2-  0.1-
    100504 D21  0.4+  0.6+    100505 691  0.1-  0.7-    100505 H10  0.2-  0.3-
    100504 D21  0.5+  0.4+    100505 691  0.3+  0.7-    100505 H10  0.0   0.1-
    
    Ephemeris:
    2010 JG                  a,e,i = 1.19, 0.32, 23                  q = 0.8086
    Date    TT    R. A. (2000) Decl.     Delta      r     Elong.  Phase     V
    2010 05 04    15 35.52   -09 18.9    0.246    1.248   165.7    11.5    19.0
    2010 05 14    14 40.98   -20 42.6    0.191    1.199   170.0     8.4    18.3
    2010 05 24    13 08.51   -34 48.5    0.172    1.148   139.4    35.0    18.8
    2010 06 03    11 16.01   -43 26.4    0.188    1.096   110.9    59.8    19.6
    2010 06 13    09 45.84   -45 10.9    0.226    1.043    90.6    76.9    20.4
    2010 06 23    08 45.48   -44 03.5    0.270    0.990    76.8    87.8    21.1
    2010 07 03    08 03.30   -41 41.6    0.313    0.940    67.0    95.1    21.6
    2010 07 13    07 32.28   -38 10.9    0.354    0.894    60.1    99.9    22.0
    
    Timothy B. Spahr             (C) Copyright 2010 MPC           M.P.E.C. 2010-J21
    

    Read MPEC 2010-J20 Read MPEC 2010-J22


    MPEC number:

    Enter an MPEC number in one of the following forms:

    • 1997-B01 (the full form)
    • J97B01 (the packed version of the full form)
    • B01 (the abbreviated form)